Appleton, MN

7:47 PM CDT on September 25, 2016 (GMT -0500)
Appleton Municipal

Weather History for KAQP - May, 2013

Change the Weather History Date:

Tuesday, May 28, 2013

  Actual Average Record
Temperature  
Mean Temperature 63 °F -  
Max Temperature 71 °F 69 °F 91 °F (2006)
Min Temperature 55 °F 47 °F 39 °F (2004)
Degree Days  
Heating Degree Days 2    
Growing Degree Days 13 (Base 50)    
Moisture  
Dew Point 55 °F    
Average Humidity 81    
Maximum Humidity 94    
Minimum Humidity 57    
Precipitation  
Precipitation 0.00 in - - ()
Sea Level Pressure  
Sea Level Pressure 29.73 in    
Wind  
Wind Speed 6 mph (SE)    
Max Wind Speed 13 mph    
Max Gust Speed -    
Visibility 7 miles    
Events Fog    
Averages and records for this station are not official NWS values.
T = Trace of Precipitation, MM = Missing Value Source: NWS Daily Summary

Daily Weather History Graph

Daily Weather History Graph

Search for Another Location

Airport or City:

Trip Planner

Search our weather history database for the weather conditions in past years. The results will help you decide how hot, cold, wet, or windy it might be!

Date:

Astronomy

May. 28, 2013 Rise Set
Actual Time 5:42 AM CDT 9:01 PM CDT
Civil Twilight 5:05 AM CDT 9:37 PM CDT
Nautical Twilight 4:18 AM CDT 10:24 PM CDT
Astronomical Twilight 3:20 AM CDT 11:24 PM CDT
Moon No Moon Rise 9:36 AM CDT (5/28)
Length of Visible Light 16h 31m
Length of Day
15h 19m
Waning Gibbous, 82% of the Moon is Illuminated
May 28
Waning Gibbous
May 31
Last Quarter
Jun 8
New
Jun 16
First Quarter
Jun 23
Full

Hourly Weather History & Observations

Time (CDT) Temp. Dew Point Humidity Pressure Visibility Wind Dir Wind Speed Gust Speed Precip Events Conditions
12:13 AM 59.0 °F 53.6 °F 82% 29.78 in 10.0 mi ESE 8.1 mph - N/A   Overcast
12:33 AM 57.2 °F 53.6 °F 88% 29.76 in 7.0 mi ESE 12.7 mph - N/A   Overcast
12:53 AM 57.2 °F 53.6 °F 88% 29.77 in 4.0 mi ESE 11.5 mph - N/A   Overcast
1:13 AM 57.2 °F 53.6 °F 88% 29.77 in 5.0 mi SE 9.2 mph - N/A   Overcast
1:33 AM 57.2 °F 53.6 °F 88% 29.79 in 5.0 mi SE 6.9 mph - N/A   Overcast
1:53 AM 57.2 °F 53.6 °F 88% 29.80 in 4.0 mi SE 6.9 mph - N/A   Overcast
2:13 AM 57.2 °F 53.6 °F 88% 29.79 in 5.0 mi ESE 4.6 mph - N/A   Overcast
2:34 AM 57.2 °F 53.6 °F 88% 29.77 in 7.0 mi ESE 6.9 mph - N/A   Overcast
2:53 AM 57.2 °F 53.6 °F 88% 29.77 in 7.0 mi East 3.5 mph - N/A   Overcast
3:13 AM 57.2 °F 53.6 °F 88% 29.76 in 7.0 mi ESE 5.8 mph - N/A   Overcast
3:33 AM 57.2 °F 53.6 °F 88% 29.74 in 7.0 mi East 8.1 mph - N/A   Overcast
3:53 AM 57.2 °F 53.6 °F 88% 29.75 in 7.0 mi ESE 6.9 mph - N/A   Overcast
4:13 AM 57.2 °F 53.6 °F 88% 29.75 in 7.0 mi SE 5.8 mph - N/A   Overcast
4:33 AM 57.2 °F 53.6 °F 88% 29.75 in 7.0 mi SE 4.6 mph - N/A   Overcast
4:53 AM 57.2 °F 53.6 °F 88% 29.75 in 7.0 mi South 3.5 mph - N/A   Overcast
5:13 AM 57.2 °F 53.6 °F 88% 29.74 in 5.0 mi Calm Calm - N/A   Overcast
5:33 AM 57.2 °F 53.6 °F 88% 29.72 in 5.0 mi East 5.8 mph - N/A   Overcast
5:54 AM 57.2 °F 53.6 °F 88% 29.71 in 5.0 mi ESE 5.8 mph - N/A   Overcast
6:13 AM 57.2 °F 53.6 °F 88% 29.71 in 4.0 mi ESE 8.1 mph - N/A   Overcast
6:33 AM 57.2 °F 53.6 °F 88% 29.72 in 2.5 mi ESE 8.1 mph - N/A   Overcast
6:53 AM 57.2 °F 53.6 °F 88% 29.71 in 0.8 mi ESE 6.9 mph - N/A   Overcast
7:13 AM 55.4 °F 53.6 °F 94% 29.71 in 0.5 mi ESE 5.8 mph - N/A Fog Fog
7:33 AM 55.4 °F 53.6 °F 94% 29.71 in 0.8 mi ESE 6.9 mph - N/A   Overcast
7:54 AM 57.2 °F 53.6 °F 88% 29.70 in 0.8 mi ESE 9.2 mph - N/A   Overcast
8:13 AM 57.2 °F 53.6 °F 88% 29.69 in 1.2 mi ESE 9.2 mph - N/A   Overcast
8:33 AM 57.2 °F 53.6 °F 88% 29.69 in 2.5 mi ESE 10.4 mph - N/A   Overcast
8:54 AM 57.2 °F 55.4 °F 94% 29.69 in 5.0 mi ESE 12.7 mph - N/A   Overcast
9:14 AM 57.2 °F 55.4 °F 94% 29.69 in 2.0 mi ESE 10.4 mph - N/A   Overcast
9:33 AM 57.2 °F 55.4 °F 94% 29.70 in 7.0 mi ESE 10.4 mph - N/A   Overcast
9:53 AM 57.2 °F 53.6 °F 88% 29.74 in 7.0 mi SSW 8.1 mph - N/A   Overcast
10:13 AM 57.2 °F 53.6 °F 88% 29.75 in 5.0 mi SSW 3.5 mph - N/A   Overcast
10:34 AM 57.2 °F 53.6 °F 88% 29.74 in 5.0 mi South 3.5 mph - N/A   Overcast
10:53 AM 57.2 °F 53.6 °F 88% 29.74 in 7.0 mi SSE 3.5 mph - N/A   Overcast
11:13 AM 59.0 °F 53.6 °F 82% 29.74 in 7.0 mi Calm Calm - N/A   Overcast
11:33 AM 59.0 °F 53.6 °F 82% 29.73 in 7.0 mi Calm Calm - N/A   Overcast
11:53 AM 59.0 °F 55.4 °F 88% 29.73 in 7.0 mi SW 3.5 mph - N/A   Overcast
12:14 PM 59.0 °F 55.4 °F 88% 29.74 in 5.0 mi SSW 3.5 mph - N/A   Overcast
12:33 PM 59.0 °F 55.4 °F 88% 29.74 in 7.0 mi SW 3.5 mph - N/A   Overcast
12:53 PM 59.0 °F 55.4 °F 88% 29.74 in 7.0 mi SSW 3.5 mph - N/A   Overcast
1:13 PM 59.0 °F 55.4 °F 88% 29.74 in 7.0 mi Calm Calm - N/A   Overcast
1:34 PM 60.8 °F 55.4 °F 82% 29.73 in 10.0 mi Calm Calm - N/A   Overcast
1:53 PM 62.6 °F 55.4 °F 77% 29.73 in 10.0 mi Calm Calm - N/A   Overcast
2:13 PM 62.6 °F 55.4 °F 77% 29.73 in 10.0 mi Calm Calm - N/A   Overcast
2:34 PM 64.4 °F 55.4 °F 73% 29.72 in 10.0 mi Calm Calm - N/A   Overcast
2:54 PM 64.4 °F 55.4 °F 73% 29.72 in 10.0 mi ESE 4.6 mph - N/A   Overcast
3:13 PM 66.2 °F 57.2 °F 73% 29.72 in 10.0 mi Calm Calm - N/A   Overcast
3:34 PM 68.0 °F 57.2 °F 68% 29.71 in 10.0 mi East 5.8 mph - N/A   Mostly Cloudy
3:53 PM 68.0 °F 55.4 °F 64% 29.72 in 10.0 mi Calm Calm - N/A   Scattered Clouds
4:14 PM 68.0 °F 57.2 °F 68% 29.71 in 10.0 mi ESE 3.5 mph - N/A   Mostly Cloudy
4:34 PM 68.0 °F 57.2 °F 68% 29.72 in 10.0 mi Calm Calm - N/A   Overcast
4:54 PM 68.0 °F 57.2 °F 68% 29.72 in 10.0 mi South 3.5 mph - N/A   Overcast
5:14 PM 69.8 °F 57.2 °F 64% 29.71 in 10.0 mi SSW 3.5 mph - N/A   Scattered Clouds
5:33 PM 69.8 °F 55.4 °F 60% 29.71 in 10.0 mi SSE 5.8 mph - N/A   Clear
5:54 PM 71.6 °F 55.4 °F 57% 29.71 in 10.0 mi Calm Calm - N/A   Clear
6:13 PM 71.6 °F 55.4 °F 57% 29.70 in 10.0 mi Calm Calm - N/A   Scattered Clouds
6:33 PM 71.6 °F 57.2 °F 60% 29.70 in 10.0 mi SSE 3.5 mph - N/A   Scattered Clouds
6:53 PM 69.8 °F 55.4 °F 60% 29.70 in 10.0 mi SE 6.9 mph - N/A   Clear
7:13 PM 69.8 °F 57.2 °F 64% 29.70 in 10.0 mi SSE 8.1 mph - N/A   Clear
7:33 PM 69.8 °F 55.4 °F 60% 29.70 in 10.0 mi SSE 8.1 mph - N/A   Clear
7:53 PM 68.0 °F 57.2 °F 68% 29.69 in 10.0 mi SSE 9.2 mph - N/A   Clear
8:14 PM 66.2 °F 57.2 °F 73% 29.69 in 10.0 mi SE 8.1 mph - N/A   Clear
8:34 PM 66.2 °F 57.2 °F 73% 29.69 in 10.0 mi SE 9.2 mph - N/A   Clear
8:53 PM 64.4 °F 55.4 °F 73% 29.69 in 10.0 mi SE 9.2 mph - N/A   Clear
9:14 PM 64.4 °F 55.4 °F 73% 29.70 in 10.0 mi SE 6.9 mph - N/A   Clear
9:33 PM 62.6 °F 55.4 °F 77% 29.71 in 10.0 mi SE 8.1 mph - N/A   Clear
9:54 PM 62.6 °F 55.4 °F 77% 29.71 in 10.0 mi SE 9.2 mph - N/A   Clear
10:13 PM 60.8 °F 55.4 °F 82% 29.71 in 10.0 mi SE 8.1 mph - N/A   Clear
10:33 PM 60.8 °F 55.4 °F 82% 29.71 in 10.0 mi SE 6.9 mph - N/A   Clear
10:53 PM 60.8 °F 55.4 °F 82% 29.71 in 10.0 mi SE 6.9 mph - N/A   Clear
11:13 PM 59.0 °F 55.4 °F 88% 29.72 in 10.0 mi SE 6.9 mph - N/A   Clear
11:34 PM 59.0 °F 55.4 °F 88% 29.74 in 7.0 mi SSE 8.1 mph - N/A   Clear
11:53 PM 59.0 °F 55.4 °F 88% 29.73 in 7.0 mi SSE 9.2 mph - N/A   Clear